This demonstration page uses our WeatherBlox Daily Observations layout. Learn more.

41.55636, -103.73856

Hourly Observations for August 19, 2015

Temp ( °F °C ) Dew Point ( °F °C ) Humidity (%) Winds ( mph kmh ) Pressure ( in mb ) Visibility ( mi km ) Precip ( " mm )
12:53 am 00:53 Cloudy with Light Rain 52 11.1 51 10.6 97 97 W 6 9 30.04 1017 6 9.65604 0.03 0.762
1:53 am 01:53 Cloudy with Light Rain 52 11.1 51 10.6 97 97 W 5 7 30.03 1017 6 9.65604 0.05 1.27
2:15 am 02:15 Cloudy with Heavy Rain 52 11.1 51 10.6 97 97 W 3 6 30.03 1017 1.75 2.816345 0.07 1.778
2:34 am 02:34 Cloudy with Light Rain 52 11 52 11 100 100 S 3 6 30.03 1017 3 4.82802 0 0
2:41 am 02:41 Cloudy with Light Rain 52 11.1 50 10 93 93 NNW 3 6 30.03 1017 5 8.0467 0.29 7.366
2:53 am 02:53 Cloudy with Light Rain 52 11.1 50 10 93 93 WSW 6 9 30.03 1017 7 11.26538 0.3 7.62
3:07 am 03:07 Cloudy with Light Rain 52 11.1 51 10.6 97 97 W 6 9 30.03 1017 5 8.0467 0.01 0.254
3:20 am 03:20 Cloudy with Light Rain 54 12 52 11 94 94 W 5 7 30.03 1017 4 6.43736 0 0
3:27 am 03:27 Cloudy with Light Rain 52 11.1 51 10.6 97 97 W 8 13 30.03 1017 4 6.43736 0.06 1.524
3:36 am 03:36 Cloudy with Rain 52 11 52 11 100 100 W 8 13 30.03 1017 4 6.43736 0 0
3:43 am 03:43 Cloudy with Light Rain 52 11.1 51 10.6 97 97 WSW 6 9 30.03 1017 6 9.65604 0.09 2.286
3:51 am 03:51 Cloudy with Light Rain 52 11 52 11 100 100 WNW 9 15 30.03 1017 10 16.0934 0.09 2.286
3:53 am 03:53 Cloudy with Light Rain 52 11.1 51 10.6 97 97 WNW 8 13 30.02 1017 10 16.0934 0.09 2.286
4:53 am 04:53 Cloudy 52 11.1 50 10 93 93 W 7 11 30.03 1017 10 16.0934 0 0.0254
5:53 am 05:53 Cloudy 51 10.6 48 8.9 89 89 WNW 8 13 30.05 1018 10 16.0934 0 0.0254
6:53 am 06:53 Cloudy 51 10.6 49 9.4 92 92 WNW 8 13 30.07 1018 10 16.0934 0 0
7:53 am 07:53 Cloudy 52 11.1 49 9.4 89 89 W 7 11 30.09 1019 10 16.0934 0 0
8:53 am 08:53 Cloudy 54 12.2 49 9.4 83 83 WNW 9 15 30.1 1019 10 16.0934 0 0
9:53 am 09:53 Partly Cloudy 60 15.6 49 9.4 67 67 WNW 8 13 30.06 1018 10 16.0934 0 0
10:35 am 10:35 Cloudy 57 13.9 48 8.9 72 72 W 10 17 30.03 1017 10 16.0934 0 0
10:49 am 10:49 Cloudy 59 15 48 9 68 68 W 12 19 30 1016 10 16.0934 0 0
10:53 am 10:53 Cloudy 59 15 48 8.9 67 67 W 10 17 30.06 1018 10 16.0934 0 0
11:53 am 11:53 Mostly Sunny 63 17.2 47 8.3 56 56 WNW 6 9 30.02 1017 10 16.0934 0 0
12:53 pm 12:53 Mostly Sunny 65 18.3 46 7.8 51 51 WNW 5 7 30 1016 10 16.0934 0 0
1:53 pm 13:53 Sunny 67 19.4 45 7.2 45 45 WNW 8 13 29.98 1015 10 16.0934 0 0
2:53 pm 14:53 Sunny 68 20 43 6.1 40 40 undefined N/A 29.96 1015 10 16.0934 0 0
3:53 pm 15:53 Sunny 68 20 44 6.7 42 42 S 6 9 29.94 1014 10 16.0934 0 0
4:53 pm 16:53 Sunny 70 21.1 43 6.1 38 38 Calm 29.93 1013 10 16.0934 0 0
5:53 pm 17:53 Sunny 69 20.6 42 5.6 38 38 Calm 29.91 1013 10 16.0934 0 0
6:53 pm 18:53 Sunny 67 19.4 44 6.7 44 44 SSE 7 11 29.9 1013 10 16.0934 0 0
7:53 pm 19:53 Clear 62 16.7 48 8.9 60 60 SSE 6 9 29.91 1013 10 16.0934 0 0
8:53 pm 20:53 Clear 59 15 47 8.3 64 64 SSE 6 9 29.93 1014 10 16.0934 0 0
9:53 pm 21:53 Clear 55 12.8 48 8.9 77 77 SE 5 7 29.93 1014 10 16.0934 0 0
10:53 pm 22:53 Clear 53 11.7 48 8.9 83 83 ESE 8 13 29.93 1014 10 16.0934 0 0
11:53 pm 23:53 Clear 51 10.6 47 8.3 86 86 ENE 6 9 29.91 1013 10 16.0934 0 0

Powered by AerisWeather